Location: Le Domaine
(47.0333°N, 76.5361°W)
Time: 20:39:54
(UTC-05:00)

Explorer 11/Cluster Stage 4 - Pass Details

Date: 22 November 2019
Orbit: 467 x 1259 km, 28.8° (Epoch: 13 December)

Event Time Altitude Azimuth Distance (km) Brightness Sun altitude
Rises 21:11:52 0° 236° (SW) 3,226 - -47.9°
Reaches altitude 10° 21:15:50 10° 207° (SSW) 2,496 - -48.5°
Maximum altitude 21:18:10 12° 184° (S) 2,439 - -48.9°
Drops below altitude 10° 21:20:41 10° 161° (SSE) 2,720 - -49.3°
Sets 21:25:30 0° 135° (SE) 3,869 - -50.0°
